Total_Precipitation_Accumulation
0.19 0.05 0.02 0.02 0.04 0.07 0.07 0.07 0.07 0.08 0.09 0.09 0.08 0.08 0.08 0.09 0.10 0.08 0.07 0.08 0.11 0.20 0.28 0.30 0.30 0.35 0.35 0.33 0.28 0.22 0.16 0.12 0.10 0.10 0.11 0.12 0.15 0.18 0.19 0.15 0.15 0.11 0.06
0.17 0.04 0.01 0.02 0.03 0.05 0.06 0.09 0.09 0.08 0.08 0.08 0.07 0.07 0.08 0.08 0.09 0.11 0.10 0.10 0.16 0.22 0.24 0.26 0.27 0.28 0.25 0.22 0.18 0.13 0.09 0.08 0.10 0.12 0.16 0.21 0.31 0.34 0.32 0.26 0.27 0.19 0.06
0.06 0.01 0.01 0.02 0.03 0.04 0.06 0.08 0.09 0.09 0.08 0.08 0.09 0.08 0.09 0.09 0.10 0.11 0.12 0.14 0.19 0.21 0.19 0.19 0.21 0.19 0.16 0.10 0.07 0.06 0.06 0.09 0.14 0.21 0.42 0.54 0.57 0.44 0.32 0.28 0.27 0.18 0.09
0.03 0.01 0.00 0.02 0.03 0.03 0.03 0.05 0.08 0.09 0.09 0.11 0.12 0.11 0.10 0.10 0.10 0.10 0.12 0.14 0.17 0.17 0.15 0.14 0.13 0.11 0.07 0.04 0.04 0.04 0.06 0.10 0.20 0.41 0.77 0.73 0.81 0.65 0.41 0.29 0.28 0.26 0.23
0.03 0.02 0.01 0.01 0.02 0.02 0.03 0.04 0.07 0.10 0.11 0.11 0.14 0.14 0.11 0.09 0.08 0.10 0.15 0.18 0.21 0.20 0.21 0.20 0.16 0.09 0.04 0.04 0.05 0.06 0.07 0.13 0.26 0.54 0.87 1.04 1.08 0.88 0.54 0.35 0.34 0.36 0.38
0.03 0.01 0.01 0.02 0.02 0.02 0.03 0.04 0.07 0.12 0.13 0.13 0.13 0.14 0.14 0.11 0.09 0.14 0.22 0.25 0.25 0.24 0.28 0.33 0.26 0.17 0.09 0.06 0.05 0.06 0.10 0.17 0.30 0.61 1.08 1.36 1.12 0.82 0.53 0.39 0.33 0.42 0.49
0.05 0.02 0.01 0.03 0.03 0.03 0.04 0.06 0.11 0.14 0.16 0.18 0.15 0.16 0.17 0.11 0.09 0.15 0.24 0.29 0.29 0.27 0.27 0.25 0.18 0.14 0.10 0.07 0.07 0.07 0.11 0.18 0.33 0.63 0.98 1.25 0.99 0.63 0.45 0.39 0.37 0.39 0.42
0.11 0.04 0.03 0.04 0.04 0.05 0.07 0.10 0.14 0.14 0.16 0.17 0.16 0.16 0.15 0.11 0.10 0.15 0.23 0.30 0.36 0.31 0.23 0.17 0.13 0.09 0.08 0.07 0.07 0.07 0.10 0.15 0.23 0.49 0.79 0.85 0.68 0.47 0.38 0.37 0.37 0.34 0.33
0.23 0.14 0.08 0.04 0.05 0.07 0.10 0.12 0.15 0.15 0.16 0.15 0.13 0.13 0.14 0.13 0.11 0.14 0.21 0.26 0.25 0.18 0.14 0.12 0.10 0.08 0.05 0.03 0.04 0.05 0.09 0.13 0.19 0.40 0.68 0.72 0.62 0.44 0.35 0.30 0.27 0.27 0.27
0.65 0.72 0.43 0.13 0.05 0.04 0.06 0.14 0.19 0.21 0.19 0.16 0.12 0.11 0.11 0.11 0.13 0.15 0.18 0.16 0.12 0.06 0.04 0.04 0.03 0.03 0.02 0.02 0.02 0.04 0.06 0.08 0.14 0.32 0.54 0.63 0.57 0.42 0.37 0.32 0.27 0.23 0.23
0.93 1.10 0.58 0.25 0.13 0.10 0.09 0.11 0.16 0.20 0.22 0.17 0.13 0.14 0.14 0.18 0.24 0.24 0.16 0.13 0.08 0.05 0.03 0.02 0.02 0.02 0.02 0.02 0.02 0.03 0.04 0.08 0.27 0.36 0.45 0.50 0.50 0.45 0.42 0.38 0.32 0.27 0.23
0.84 0.79 0.68 0.42 0.26 0.20 0.16 0.18 0.20 0.19 0.20 0.16 0.24 0.18 0.23 0.45 0.52 0.39 0.29 0.17 0.11 0.08 0.06 0.05 0.05 0.04 0.04 0.05 0.06 0.05 0.08 0.15 0.26 0.39 0.38 0.31 0.37 0.42 0.44 0.43 0.35 0.30 0.28
1.14 0.80 0.75 0.60 0.45 0.38 0.37 0.36 0.29 0.30 0.30 0.29 0.40 0.32 0.41 0.49 0.43 0.40 0.36 0.25 0.22 0.17 0.16 0.17 0.13 0.11 0.10 0.11 0.13 0.12 0.14 0.19 0.26 0.39 0.36 0.36 0.36 0.40 0.46 0.47 0.40 0.36 0.36
1.18 1.00 0.83 0.81 0.76 0.70 0.68 0.66 0.49 0.48 0.48 0.47 0.57 0.47 0.54 0.62 0.58 0.49 0.51 0.45 0.46 0.41 0.40 0.35 0.27 0.19 0.18 0.17 0.18 0.16 0.19 0.21 0.25 0.31 0.36 0.39 0.36 0.43 0.52 0.56 0.51 0.49 0.46
1.15 1.02 0.96 1.02 1.00 0.99 1.00 1.00 0.84 0.78 0.79 0.80 0.81 0.69 0.74 0.74 0.69 0.64 0.62 0.63 0.63 0.67 0.63 0.57 0.46 0.35 0.29 0.26 0.23 0.24 0.28 0.28 0.32 0.37 0.43 0.39 0.34 0.45 0.60 0.66 0.65 0.65 0.64
1.13 1.09 1.06 1.14 1.08 1.14 1.19 1.19 1.09 1.03 1.14 1.26 1.24 1.06 1.01 1.02 0.98 0.92 0.91 0.92 0.83 0.81 0.81 0.74 0.61 0.54 0.43 0.37 0.36 0.37 0.37 0.34 0.37 0.41 0.49 0.48 0.43 0.46 0.60 0.72 0.79 0.80 0.80
1.29 1.29 1.25 1.14 1.19 1.22 1.28 1.25 1.15 1.18 1.35 1.48 1.47 1.49 1.33 1.20 1.25 1.19 1.22 1.25 1.08 1.01 1.05 1.05 0.86 0.74 0.65 0.56 0.56 0.50 0.46 0.50 0.53 0.56 0.61 0.64 0.64 0.61 0.66 0.67 0.71 0.75 0.77
1.34 1.59 1.56 1.20 1.28 1.35 1.35 1.40 1.35 1.43 1.58 1.71 1.68 1.75 1.63 1.48 1.44 1.51 1.47 1.40 1.32 1.27 1.35 1.44 1.22 1.07 0.98 0.85 0.79 0.64 0.58 0.57 0.54 0.59 0.64 0.64 0.75 0.77 0.72 0.63 0.64 0.67 0.70
1.70 2.01 1.82 1.41 1.42 1.52 1.64 1.74 1.70 1.73 1.96 2.08 2.09 2.00 1.77 1.65 1.71 1.78 1.79 1.75 1.68 1.63 1.64 1.55 1.51 1.32 1.31 1.17 0.93 0.78 0.70 0.67 0.67 0.64 0.62 0.62 0.64 0.70 0.69 0.62 0.57 0.55 0.56
2.14 2.60 2.24 1.73 1.70 1.86 1.86 1.84 2.02 2.16 2.41 2.64 2.55 2.34 2.17 2.15 2.14 2.14 2.09 2.12 2.14 2.13 1.97 1.85 1.73 1.50 1.34 1.20 0.97 0.86 0.82 0.78 0.70 0.63 0.55 0.52 0.50 0.46 0.47 0.53 0.55 0.48 0.45
2.27 2.45 2.38 2.19 2.17 2.26 2.33 2.21 2.35 2.61 2.84 3.02 3.00 2.95 2.88 2.81 2.74 2.67 2.61 2.50 2.37 2.27 2.11 1.91 1.74 1.56 1.38 1.15 1.08 0.93 0.76 0.66 0.58 0.50 0.44 0.40 0.37 0.34 0.32 0.36 0.43 0.45 0.42
2.27 2.26 2.37 2.49 2.51 2.38 2.61 2.84 3.13 3.43 3.55 3.73 3.92 4.00 3.93 3.69 3.42 3.26 3.09 2.80 2.48 2.31 2.19 1.96 1.71 1.54 1.34 1.11 1.06 1.01 0.81 0.61 0.48 0.38 0.34 0.32 0.29 0.26 0.24 0.23 0.28 0.31 0.31
2.13 2.31 2.44 2.69 2.79 2.74 3.11 3.59 4.06 4.35 4.36 4.34 4.35 4.35 4.21 3.87 3.55 3.29 2.95 2.69 2.47 2.28 2.12 1.97 1.74 1.58 1.33 1.06 0.91 0.93 0.90 0.75 0.51 0.36 0.27 0.22 0.20 0.18 0.16 0.14 0.15 0.16 0.18
1.85 2.07 2.24 2.58 2.94 3.24 3.60 4.06 4.61 4.90 5.06 4.96 4.61 4.31 3.90 3.51 3.19 2.79 2.53 2.44 2.25 2.08 1.92 1.70 1.45 1.30 1.17 1.01 0.87 0.80 0.73 0.65 0.54 0.42 0.30 0.21 0.17 0.16 0.15 0.14 0.13 0.11 0.13
1.61 1.83 2.06 2.35 2.80 3.39 4.06 4.61 5.03 5.34 5.30 4.88 4.39 3.80 3.39 3.02 2.73 2.45 2.22 2.17 2.03 1.77 1.51 1.24 1.03 0.92 0.85 0.79 0.71 0.65 0.59 0.50 0.43 0.40 0.34 0.23 0.17 0.13 0.12 0.12 0.13 0.13 0.12
1.27 1.55 1.89 2.26 2.57 3.13 3.76 4.34 4.70 4.93 4.84 4.42 3.79 3.26 2.89 2.57 2.26 1.98 1.72 1.53 1.37 1.15 0.95 0.79 0.69 0.63 0.59 0.55 0.51 0.47 0.45 0.42 0.38 0.35 0.33 0.26 0.20 0.15 0.12 0.10 0.10 0.11 0.11